Home Rules Search Enroll Grooms Brides Divorcee Success Stories Response Magazine Photo Edit
 
Grooms
 
If you want contact details of matching profiles, please submit these registration numbers through RESPONSE option along with your registration number and registered email address.
 
Reg.No Reg-Dt Height Birth-Dt Education Residence Occupation
             
 
MB40410 24/08/14 5.06 07/02/85 BE(MECH) PUNE ASST.MANAGER PUNE/7 LAC PA
MB40409 24/08/14 5.11 09/12/85 B.TECH(MECH), MBA PUNE SR.DESIGN ENGINEER BANGALORE/7 LAC PA
MB40408 24/08/14 5.08 03/02/87 BE(MECH) PUNE INFOSYS PUNE/7 LAC PA
MB40407 24/08/14 5.10 17/05/88 BE(IT) PUNE PRINCIPAL IN GLOBAL SERVICE CO. PUNE/75000/-PM
MB40406 24/08/14 5.06 23/06/83 MCM PUNE SERVICE PUNE/3.5 LAC PA
MB40405 24/08/14 5.10 02/04/86 B.E.(ELECTRICAL) MUMBAI SERVICE-MANAGER MUMBAI/10.50 LAC
MB40404 24/08/14 5.10 16/05/85 BE NAGPUR PROJECT LEAD IN IT COMPANY HARTFORD USA/$ 71000 PA
MB40403 24/08/14 5.07 21/08/85 MBA(FIN & HR) PUNE SERVICE PUNE/6.5 LAC PA
MB40402 24/08/14 5.08 21/08/84 MDS(PEDODENTIST) THANE ASST. PROFESSOR(GDC MUMBAI), PRIVATE PRACTICE/120000 PM
MB40400 23/08/14 6.00 04/02/84 BE(COMP) PUNE SERVICE PUNE/50000/-PM
MB40398 23/08/14 5.09 05/01/83 MBBS + MS + MCH PLASTIC SURGERY NASHIK SERVICE/1 LAC PM
MB40397 23/08/14 5.08 27/03/84 MBA/MARKETING MUMBAI WORKING IN A PRIVATE COMPANY AS A MARKETING PROFESSIONAL/ BUSINESS MUMBAI/6,80,000 PA
MB40396 23/08/14 5.10 17/07/87 BE(ELECTRONICS), C-DAC MUMBAI SERVICE MUMBAI/750000 PA
MB40395 23/08/14 5.10 26/04/81 ENGINEER AND MBA MUMBAI JOB MNC MUMBAI/54000 PM
MB40394 23/08/14 5.10 13/08/87 BE EXTC MUMBAI S/W ENGINEER MUMBAI/10.5 LAC PA
MB40393 23/08/14 5.09 25/11/85 MASTER OF ARCHITECT PUNE ASST.PROFESSOR+OWN OFFICE PUNE /50000/-PM
MB40392 23/08/14 5.08 26/09/87 MBA MARKETING PUNE ALTRATECH CEMENT LTD PUNE/500000 PA
MB40391 23/08/14 6.01 02/06/87 BE(IT) PUNE SERVICE PERSISTENT PUNE (6 YEARS EXPERIENCE) /6.2 LAC PA
MB40390 23/08/14 6.00 06/02/87 BE(INSTRU), MBA(OPERATION) NASHIK SERVICE IN MUMBAI/30000/-PM
MB40389 23/08/14 5.11 07/03/86 BE(IT) PUNE SERVICE PUNE/6 LAC PA
MB40388 23/08/14 5.08 31/08/84 MBBS MD PHARMACOLOGY THANE STUDY LAST YEAR OF MD / PM
MB40387 22/08/14 5.08 20/05/85 BE(MECH), MBA(MKTG/PROD) AURANGABAD OWN INDUSTRY AURANGABAD/--
MB40386 22/08/14 5.07 17/01/85 BE MUMBAI PERMANENT GOVERNMENT EMPLOYEE MUMBAI/458400 PA
MB40385 22/08/14 5.10 18/07/86 ICWA/ CA PUNE MANAGER FINANCE PUNE/600000 PA
MB40384 22/08/14 5.10 18/09/85 BE(CHEM),UDCT,MUMBAI SATARA SERVICE RELIANCE INDUSTRIES JAMNAGAR/1 LAC PM
MB40383 22/08/14 5.04 03/11/83 MA PUNE JEWELERS BUSINESS PUNE /--
MB40382 22/08/14 5.11 30/05/85 DME PUNE PROJECT ENGINEER PUNE/52000/-PM
MB40381 22/08/14 5.04 05/08/87 BCOM, TALLY PUNE ACCOUNTANT PUNE/18000/-PM
MB40380 21/08/14 5.11 07/08/83 BE(COM) PURSUING MBA PUNE ASST.VICE PRESIDENT PUNE/20 LAC PA
MB40379 21/08/14 5.08 06/10/87 BE COM (PUNE UNIV) AURANGABAD BUILDER, INT. DESIGNER, FIRM AURANGABAD/70000 AVG PM
MB40378 21/08/14 5.08 04/03/89 M.TECH.(BIOTECH) MUMBAI INDORE SR.SCIENTIFIC ASSISTANT AHMEDABAD/3.5 LACS PA
MB40377 21/08/14 5.07 20/03/86 INTERIOR DESIGN NAVI MUMBAI INTERIOR BUSINESS NAVI MUMBAI/--
MB40375 21/08/14 5.07 01/06/85 BE(PROD) MUMBAI SERVICE IN MNC MUMBAI/12 LAC PA
MB40373 21/08/14 5.08 21/09/88 B.TECH (EEE), MS(EEE) USA, STUDIED IN ENGISH MEDIUM THROUGHOUT. HYDERABAD SERVICE IN USA/$ 68000/- PA
MB40372 21/08/14 5.05 13/04/80 DIP IN ELECTRONICS ENGG, DIP IN CIVIL ENGG PUNE SERVICE PUNE/3 LAC PA
MB40371 21/08/14 5.08 24/02/88 BE(IT), MS(USA) NANDED SAP CONSULTANT IN USA/--
MB40370 20/08/14 5.10 23/04/89 BE, MS - COMPUTER SCIENCE - USA PUNE SERVICE - ATLANTA - USA/50 LACS PA
MB40369 20/08/14 5.08 24/11/85 M.PHARM, DOING PHD PUNE PROFESSOR PUNE/50000/-PM
MB40368 20/08/14 6.00 27/08/88 B.E. (COMP) PUNE SERVICE PUNE/--
MB40367 20/08/14 5.07 21/12/85 BE(ELECTRONICS) MUMBAI senior associate in MNC at pune with salary/12 lakh per year
MB40366 20/08/14 5.05 25/09/85 MCOM PUNE CLERK IN COLLEGE PUNE/25000/-PM
MB40365 20/08/14 5.05 17/05/84 ITI, FYBA(I YEAR APPEARING) SOLAPUR SERVICE PUNE/21000/-PM
MB40364 20/08/14 5.07 27/07/84 PGD IN HOSPITALITY MGMT(UK) THANE SERVICE IN MALL PUNE/--
MB40363 20/08/14 5.07 10/11/84 B.COM PUNE SERVICE PUNE/ PM
MB40362 20/08/14 5.06 02/03/84 B.ARCH SATARA DESIGN CONSULTANT SPACE MATRIX MUMBAI/6 LAC PA
MB40360 19/08/14 5.08 31/05/85 BSC(MATHS). MCA PUNE IT S/W DEVELOPER+TESTING PUNE/45000/-PM
MB40359 19/08/14 5.08 14/01/88 B.E(MECH) SOLAPUR JR.ENGG CLASS-II MAHARASHTRA (WRD) OSMANABAD/39000/-
MB40358 19/08/14 5.07 03/10/86 BAMS PGDEMS PUNE DOCTOR PUNE/15 LAC PA
MB40357 19/08/14 5.05 07/10/85 MBBS, DMRE(FIRST YEAR/DIPLOMA IN RADIOLOGY) SOLAPUR DOCTOR AURANGABAD/--
MB40356 19/08/14 5.07 21/08/89 BE COMPUTER MUMBAI SOFTWARE ENGINEER IN MNC IN MUMBAI/RS 7,10,000/- PA
MB40355 19/08/14 6.00 02/10/84 B.Com, M.B.A - Convent NAVI MUMBAI SERVICE & BUSINESS NAVI MUMBAI/7.5 LAC PA
MB40354 19/08/14 5.08 13/08/84 BCOM, MCP, CITRIX CERTIFIED PUNE SERVICE,ASSISTANT MANAGER PUNE/8.50 LAC PA
MB40353 19/08/14 5.07 01/06/87 BCA PUNE ARMY OFFICER/--
MB40352 19/08/14 5.10 05/11/87 DME (AMIE) NAGPUR JUNIOR ENGINEER AT NTPC NAGPUR/54400 PM
MB40351 19/08/14 6.00 16/07/83 PGDBM, BCOM PUNE BUSINESS PUNE/4.35 LAC PA
MB40350 19/08/14 5.11 21/01/84 BE(MECH) PUNE SERVICE PUNE/9.57 LAC PA
MB40349 19/08/14 5.09 14/09/87 NAUTICAL SCIENCE MUMBAI 2 ND OFFICER/ MERCHANT NAVY/31,50,000 PA
MB40348 19/08/14 5.08 17/10/83 MCOM,MBA(FIN.),DTL PUNE SERVICE PUNE/35000 PM
MB40347 18/08/14 5.11 21/04/82 B.M.S. / M.B.A. (PG Dip in Finance) THANE SERVICE/9 LAC PA
MB40346 18/08/14 5.09 18/12/84 MBA-FINANCE BANGALORE SERVICE AS A SR.FINANCIAL ANALYST BANGALORE/9 LAC PA+
MB40345 18/08/14 5.11 07/10/87 B. TECH- MECHANICAL THANE MECHANICAL ENGINEER THANE/675000/- PA
MB40344 18/08/14 5.06 27/02/87 BBA, MCOM AURANGABAD GOVT.SERVANT JR.CLERK AT PWD SUB DIV. A.NAGAR/190000 PA
MB40343 18/08/14 5.08 22/09/88 ME(MECHANICAL DESIGN ENGG.) PUNE ASST. PROFESSOR PUNE/45000/-
MB40342 17/08/14 5.10 04/11/84 BSC(HORT), MMM PUNE, PGDBM PUNE PUNE MARKETING MANAGER WEST OF MAHARASHTRA & GOA/42000/-PM
MB40341 17/08/14 5.08 14/10/84 BE(COMP) PUNE S/W ENGINEER PUNE/10 LAC PA
MB40340 17/08/14 5.11 21/09/83 MBA (HR), MBA (MARKETING), BSC (CHEMISTRY) PUNE SENIOR HR EXECUTIVE, CORPORATE OFFICE,PUNE./3 lac pa
MB40339 17/08/14 5.07 03/04/87 MBA/BE CHEM PUNE JOB IN MNC PUNE/750000 PA
MB40338 17/08/14 5.07 21/07/82 BE(MECH) PUNE DESIGN ENGINEER MUMBAI/30000/-
MB40337 17/08/14 5.07 22/02/84 MCS PUNE SOFTWARE ENGINEER S.AFRICA/18 LAC PA
MB40336 17/08/14 5.09 22/11/84 BCS PUNE GYM MANAGEMENT, FITNESS PROFESSIONAL PUNE/--
MB40335 17/08/14 5.09 17/05/89 BE(COMP) PUNE S/W SERVICE PUNE/--
MB40334 17/08/14 5.06 05/01/87 BE(CIVIL), PGACM PUNE MANAGER PUNE/60000/-PM
MB40333 17/08/14 5.07 13/04/88 BE(MECH), PGDM, PROJECT MGMT PUNE PROJECT ENGINEER (IT COMPANY) PUNE/5 LAC PA
MB40331 17/08/14 5.09 08/07/88 MBA FINANCE PUNE SERVICE AND BUSINESS PUNE/6 LAC PA
MB40330 17/08/14 6.00 22/05/81 MSC, PHD(BIOCHEM) OSMANABAD PROFESSOR & RESEARCH SCIENTIST SOUTH AFRICA (PLANNING TO SETTLE IN PUNE AFTER JULY 2015)/
MB40329 17/08/14 5.06 25/10/85 BSC, B.ED(PHY), M.P.ED SATARA ASST.TEACHER SATARA/30000/-PM
MB40328 17/08/14 5.07 28/01/87 BCOM SOLAPUR BUSINESS SOLPAUR/5 LAC PA
MB40327 17/08/14 5.08 13/06/86 BCOM, DIP.IN WEB DESIGN, DIP.IN EVENT MGMT PUNE UI DEVELOPER/EVENT MGMT PUNE/7.2 LAC PA
MB40326 17/08/14 5.10 04/10/83 BE(PRODUCTION) NAVI MUMBAI SR.MANAGER(GODREJ) MUMBAI/14 LAC PA
MB40325 17/08/14 5.04 21/11/84 BE(COMPUTERS) NAVI MUMBAI SYSTEM ENGINEER NAVI MUMBAI/35000 PM
MB40324 16/08/14 5.07 02/08/80 BE(INSTRU) PUNE SERVICE PUNE/1.75 LAC PM
MB40323 16/08/14 5.06 22/02/86 BCOM PUNE ACCOUNT EXECUTIVE IN PUNE/35000/-PM
MB40322 16/08/14 5.08 15/06/86 MBA, DIP IN TECHNICAL ANALYST PUNE SHARE BROKER PUNE/7.2 LAC PA
MB40321 16/08/14 5.06 19/05/84 BE PUNE SERVICE PUNE/6 LAC PA
MB40320 16/08/14 5.06 11/09/85 BE(COMP) PUNE SERVICE IN TCS PUNE/6 LAC PA
MB40319 16/08/14 5.07 17/12/87 BSC(AGRI), MBA(AGRI BUSINESS) PUNE ASST.MANAGER SOLAPUR/3.6 LAC PA
MB40318 16/08/14 5.09 28/07/76 DIP.CIVIL ENGG. SOLAPUR REG.GOVT.CONTRACTOR/10 LAC PA
MB40317 16/08/14 5.08 14/09/85 MBBS, MD MEDICINE PERSUING DNB CARDIO AT PUNE NANDED DOCTOR PUNE/40,000 PM
MB40316 16/08/14 5.09 17/01/86 M.TECH (MACHINE DESIGN) OSMANABAD CAE ANALYST (CURRENTLY IN UK UPTO YEAR END/ 7 LPA IN INDIA, @ 33 LPA IN UK) PUNE/ PM
MB40315 16/08/14 5.09 09/03/87 MS ELECTRICAL (USA), BE ELECTRICAL (UNIV OF PUNE) NASHIK ELECTRICAL ENGINEER USA/40 LAKHS PA
MB40314 16/08/14 5.10 03/04/86 DIPLOMA IN INSTRUMENTATION MUMBAI PRIVATE SERVICE MUMBAI/5 LACK PA
MB40313 16/08/14 5.08 13/07/85 BE COMPUTER PUNE LEAD SOFTWARE ENGINEER PUNE/14 L PA
MB40312 15/08/14 5.09 20/12/86 BCA, MCA PUNE S/W ENGINEER PUNE/3 LAC PA
MB40311 15/08/14 5.07 19/07/75 BCOM, MA(ENGLISH), DCA, DOING MBA JABALPUR SERVICE ICA CO. JABALPUR /30000/-PM
MB40310 15/08/14 5.03 20/12/87 MCA, MBA(IT)APPEARED, BCOM PUNE S/W ENGINEER PUNE/2.5 LAC PA
MB40309 15/08/14 5.07 24/03/87 BCOM PUNE SERVICE PUNE/25000/-PM
MB40308 15/08/14 5.08 13/02/84 BAMS, PREPARING FOR MPSC EXAM SATARA PVT.PRACTICE/--
MB40307 15/08/14 5.11 27/09/85 BE(COMP)EUROPE NAVI MUMBAI SERVICE MUMBAI/45000/- PM
MB40306 15/08/14 5.11 13/04/88 DME, B.TECH(MECH) PUNE ENGINEER PUNE/5.7 LAC PA
MB40305 15/08/14 5.06 18/09/86 BE(MECH) KOLHAPUR SERVICE IN FORD INDIA AHAMADABAD/--
MB40304 15/08/14 5.09 07/12/86 M.V.SC SANGLI LIVESTOCK DEVELOPMENT OFFICER IN GOVERNMENT OF MAHARASHTRA(CLASS I OFFICER) DHULE/600000 PA
MB40303 15/08/14 5.11 11/10/84 MST. IN JOURNALISM & MASS COMMUNICATION, B.P.TH(BAHC.IN PHYSIOTHERAPY) PUNE OFFICER IN AIRLINES MUMBAI/35000/-PM
MB40302 14/08/14 5.08 19/03/87 BE(IT) A.NAGAR S/W ENGINEER USA/$70000 PA
MB40301 14/08/14 5.06 03/09/81 B E (MECH), C DAC PUNE PROJECT MANAGER PUNE/16.5 LAC PA
MB40300 14/08/14 5.07 28/07/85 MBBS,MS(OBS & GYNAEC), DOING FELLOWSHIP IN LAPROSCOPY JALGAON DOING PRACTICE AT MUMBAI/1 LAC PM
MB40299 14/08/14 5.07 28/07/83 MCS, DIP IN ADVANCE COMPUTING(DAC-ACTS) PUNE SR.ASSOCIATE TECHNOLOGY PUNE(USA BASED COMPANY)/15 LAC PA
MB40298 14/08/14 5.07 29/05/86 BCS PUNE S/W ENGINEER IN USA/2.5 LAC PM
MB40297 14/08/14 5.08 16/12/84 LLB PUNE ADVOCATE PUNE/--
MB40296 14/08/14 5.09 15/06/74 MA PUNE BUSINESS PUNE/35000/-PM
MB40295 14/08/14 5.08 08/05/84 BE(PROD) SOLAPUR SERVICE/7.5 LAC PA
MB40294 14/08/14 5.04 02/06/76 MCM KOLHAPUR SERVICE/11 LAC PA
MB40293 14/08/14 6.00 29/09/82 MCOM, DBM, DTL, MBS(FIN), GDC&A PUNE SERVICE ASST.MANAGER PUNE/4.5 LAC PA
MB40292 14/08/14 5.03 27/03/86 MBBS, DOING DNB(MEDI)-III BEED DOING DNB AT PUNE/6 LAC PA+
MB40291 14/08/14 5.06 19/04/86 BE(MECH), PGD IN MECH DESIGN & ANALYSIS SATARA Working in US currently on H1b visa with Tata Technologies Ltd-/5100$ per month
MB40290 13/08/14 5.10 30/09/84 M.TECH, PHD IN CHEM ENGG KOLHAPUR POSTDOCTORAL RESEARCH FELLOW AUSTRALIA/2.75 LAC PM
MB40289 13/08/14 6.00 14/03/82 BE COMPUTER SCIENCE PUNE SOFTWARE ENGINEER PUNE/1600000 PA
MB40287 13/08/14 5.11 20/06/86 BAMS MD MEDICINE A.NAGAR PRIVATE PRACTICE A.NAGAR/40000 PM
MB40286 13/08/14 5.03 25/04/85 BBA PUNE ADMINISTRATIVE MANAGER/18000/-PM
MB40285 13/08/14 5.08 18/06/86 BE [ WCE Sangli] SANGLI SR.S/W ENGINEER AT COGNIZANT, PUNE/9.6 LAC PA
MB40283 13/08/14 5.06 26/06/90 Production Engg PUNE Design Engineer PUNE/4 lac PA
MB40282 13/08/14 6.00 15/09/79 LLB, BA KOLHAPUR OWN PRACTICE KOLHAPUR/--
MB40281 13/08/14 5.10 17/09/74 DIP.IN ELECTRONICS ENGINEER, C++, JAVA COMP PROG.COURSE PUNE PROJECT ENGG. IN MNC PUNE/30000/-PM
MB40280 13/08/14 5.07 15/06/83 BE(MECH), DOING MBA AURANGABAD SERVICE IN PUNE/6.8 LAC +PA
MB40279 13/08/14 5.06 22/01/86 B.E (EXTC) MUMBAI SOFTWARE ENGINEER AMDOCS IN PHILIPPINES/32 LAC PA
MB40278 13/08/14 5.11 07/04/78 BE, MS(ELECTRONICS) PUNE STAFF ENGINEER AT INTEL BANGALORE/30 LACS PA
MB40277 13/08/14 5.09 25/10/87 BE(MECH), MS(USA) PUNE SERVICE IN USA/--
MB40276 12/08/14 5.11 15/10/85 B.E.MECHANICAL PUNE MARINE ENGINEER MUMBAI/900000 PA
MB40275 12/08/14 5.09 03/09/82 MSC(MICROBIOLOGY) PUNE ASSISTANT MANAGER PUNE/60000/-PM
MB40274 12/08/14 6.00 09/06/86 BE(MECHANICAL ) DHARWAD BUSINESS- HANDLING 2 PETROL BUNKS IN DHARWAD HUBLI/200000 PM
MB40273 13/08/14 5.11 12/05/85 BE(IT) PUNE SERVICE PERSISTENT SYSTEM PUNE/10 LAC PA
MB40272 12/08/14 5.08 14/01/86 BE IT MUMBAI SOFTWARE ENGINEER (TCS) -MUMBAI /GERMANY/8.17 LAKH PA
MB40271 12/08/14 5.11 19/07/88 BBA, PGDBM, MBA(FINANCE) PUNE SERVICE +REAL ESTATE BUSINESS IN PUNE/4 LAC PA
MB40270 12/08/14 5.05 14/12/83 M.TECH IIT BOMBAY SOLAPUR MANAGER MUMBAI/65000 PM
MB40269 12/08/14 5.09 20/07/84 MBBS, M.D. ANAESTHESIA, CRITICAL CARE BULDANA STUDENT MUMBAI/60,000 PM
MB40268 12/08/14 5.09 13/02/89 BE (COMPUTER) THANE SERVICE THANE/6,00,000 PA
MB40267 12/08/14 5.06 26/03/87 B.S.L.L.L.B A.NAGAR ADVOCATE A.NAGAR/2,0000 PM
MB40265 12/08/14 5.04 05/11/87 BE CSE AURANGABAD PREPARING MPSC AURANGABAD/--
MB40263 12/08/14 5.08 02/04/86 BSC, ABM, PG IN RETAIL MGMT, MBA PUNE RETAIL OPERATION MANAGER PUNE/50000/-PM
MB40262 12/08/14 6.00 30/06/86 M.PHARM, MS(PHARMA)UK SATARA SERVICE IN UK/30 LAC PA
MB40261 12/08/14 6.00 11/06/81 B.E (POLYMER ENGINEERING) PUNE SERVICE IN PVT. FIRM (AUTOMOTIVE SECTOR) US MNC PUNE/ PA
MB40260 12/08/14 5.09 02/02/86 B.E. MECHANICAL NAVI MUMBAI ENGINEER @ AKER SOLUTIONS,MUMBAI/700000 PA
MB40259 12/08/14 5.06 01/05/84 BSC (PHYSICS) & GNIIT MUMBAI DEPUTY MANAGER, HDFC BANK MUMBAI/30000 PM
MB40258 11/08/14 5.08 23/04/83 BE(MECH) RESEARCH BIOTECH CERTIFIED HAFFKINE MUMBAI PUNE BUSINESS MINING WORK, CONSTRUCTION & LAND DEVELOPMENT/16 LAC PA
MB40257 11/08/14 5.04 23/01/86 B.TECH (AGRI) IIP(PGD) MUMBAI PUNE SERVICE IN BANGALORE/7 LAC PA
MB40256 11/08/14 5.06 25/03/86 BE(ELECTRONICS) + PGD IN INDUSTRIAL AUTOMATION THANE SERVICE + BUSINESS IN ENERGY SECTOR THANE/1.23 PM
MB40255 11/08/14 5.09 17/05/85 BE COMPUTER PUNE QA ENGINEER PUNE/4.5 LAC PA
MB40254 11/08/14 5.09 04/01/86 BSC (AGRI), MBA PUNE SERVICE PUNE/25000 PM
MB40252 11/08/14 5.07 15/08/85 B.E.(Mechanical) with Distinction PUNE TATA PROJECTS PUNE/750000 PA
MB40251 10/08/14 5.05 09/09/86 B.E(COMPUTER ENGG.) THANE SOFTWARE ENGINEER JAPAN/19,00,000 PA
MB40250 10/08/14 5.09 11/08/86 BE E&TC SOLAPUR ENGINEER @ AMDOCS, PUNE/--
MB40249 10/08/14 5.05 22/06/83 MBBS, MD(PHARMACOLOGY) PUNE Manager in Pharmaceutical company, Mumbai/13 LAC PA
MB40248 10/08/14 5.05 01/02/83 BE(MECH) KOLHAPUR SERVICE AS A DESIGN ENGINEER PUNE/--
MB40247 10/08/14 5.03 10/08/86 MBA(FIN) KOLHAPUR FINANCIAL ANALYST PUNE/30000/-PM
MB40246 10/08/14 5.09 01/02/86 MCA SANGLI S/W ENGINEER USA/$ 5000 PM
MB40245 10/08/14 5.07 18/08/87 BCOM PUNE LOAN OFFICER IN BANK PUNE/1.5 LAC PA
MB40244 09/08/14 5.07 25/04/87 MBBS,DOING MS GENERAL SURGERY 2ND YEAR SOLAPUR DOCTOR MUMBAI/40000 PM
MB40243 09/08/14 5.10 29/09/84 BE(ELECTRICAL), MS(USA) PUNE R/F TEST ENGINEER USA/$6000/-PM
MB40242 09/08/14 5.11 23/11/84 MCA PUNE SR.S/W ENGINEER MNC PUNE/50000/-PM
MB40240 09/08/14 5.06 30/03/85 DIP.MECH.ENGG, AMIE PUNE CAD DESIGNER PUNE /28000/-PM
MB40239 09/08/14 5.08 01/08/86 COMMERCIAL PILOT(A.T.P.L)(DIP.AUTOMOBILE ENGG) PUNE PILOT AT BANGALORE/36 LAC+ PA
MB40238 09/08/14 5.07 06/10/87 BSC AGRI MBA PUNE BUSINESS PUNE/400000 PA
MB40237 08/08/14 5.06 20/10/80 M.Sc. Ph.D. M.B.A. SOLAPUR RESEARCH ASSOCIATE IN ITALY/--
MB40236 08/08/14 5.11 10/08/85 DME & External Degree in Industrial Engg PUNE PLANNING ENGG, TATA MOTORS PUNE/6.8 LAC PA
MB40234 08/08/14 5.06 01/01/82 M.TECH (CIVIL ENGG, IIT GUWAHATI), PURSUING PHD IN GUWAHATI) SATARA RESEARCH SCHOLAR (CIVIL ENGG DEPT. IIT GUWAHATI)/--
MB40233 08/08/14 5.06 19/06/85 BE(ELECTRICAL), MS(ELECTRICAL)USA PUNE ENGINEER USA (IN INDIA UPTO 10.12.14)/$ 80000 PA
MB40232 07/08/14 5.09 08/08/86 BE(CIVIL), M.TECH SATARA ASST.EXECUTIVE ENGINEER(GOVT.SERVICE)/57000/-PM
MB40231 07/08/14 5.07 29/10/88 BE(MECH), MBA(APPEARED) PUNE SERVICE IN BANGALORE/6 LAC PA
MB40230 07/08/14 5.08 23/07/87 BE(MECH), MS(UK) PUNE SERVICE UK/--
MB40229 07/08/14 5.11 20/11/87 MASTER OF PHARMACY PUNE SERVICE MUMBAI/2.1 LAC PA
MB40228 07/08/14 5.05 05/12/86 MBBS, MD(PHARMACOLOGY) II YEAR NANDED DOING MD(PHARMACO)-II YEAR/--
MB40227 07/08/14 5.06 27/09/87 MBBS, DNB(MEDI)-II YEAR PUNE DOCTOR/34000/-PM
MB40226 07/08/14 5.11 06/10/84 BE(IT) SOLAPUR SERVICE IN MNC PUNE/10 LAC PA
MB40225 07/08/14 5.08 24/12/85 MSC (ELECTRONICS) PUNE EMBEDDED DESIGN ENGINEER PUNE & GERMANY/INR 5.83 LAKH PA
MB40224 07/08/14 5.05 25/05/87 MCS, MBA(FINANCE) PUNE S/W DEVELOPER PUNE/810000
MB40223 07/08/14 5.07 16/10/83 B.E. MECHANICAL KOLHAPUR SERVICE PUNE/50000 PM
MB40221 06/08/14 5.10 06/05/82 B.SC.B.ED. & D.M.L.T JALGAON SERVICE A.NAGAR/2.5 LAC PA
MB40220 06/08/14 5.04 14/01/87 M. TECH. (IIT ROORKEE) SATARA ASST MANAGER MUMBAI/5.5 LPA PA
MB40219 06/08/14 5.10 06/09/85 B.COM, CHARTERED ACCOUNTANT (C.A) PUNE BUSINESS PUNE/--
MB40218 06/08/14 5.10 20/08/84 BE ( E&TC ) , PGDAC C-DAC OSMANABAD MANAGER, CITI BANK /21 LAC PA
MB40217 06/08/14 5.05 11/08/80 B.E Computer Science (University of Pune) PUNE SERVICE/13 LAC PA
MB40215 05/08/14 5.09 09/08/85 BE THANE SOFTWARE ENGINEER MUMBAI/9 LAKHS PA
MB40214 05/08/14 5.09 07/10/86 COMPUTER ENGINEER BEED LECTURER AURANGABAD/30000 PM
MB40212 05/08/14 5.09 08/09/85 BE(MECHANICAL) DHULE SERVICE IN MNC @ MUMBAI/600000 PA
MB40211 05/08/14 5.05 23/09/88 BE COMPUTER PUNE SOFTWARE ENGINEER IN TCS PUNE/730000 PA
MB40210 05/08/14 5.11 04/01/84 MD(HOMEOPATHY), BHMS THANE OWN PRACTICE THANE/50000/-PM
MB40209 05/08/14 5.04 15/11/85 B.COM, LLB, PUNE OWN AD AGENCY BUSINESS PUNE/8 LACS PA
MB40208 05/08/14 5.07 10/09/87 BCOM DHULE JEWELLERY SHOP DHULE /--
MB40207 05/08/14 5.06 25/04/87 BE MECHANICAL SANDWITCH PUNE SERVICE PRIVATE COMPANY PUNE/7.5 LACK PA
MB40206 05/08/14 5.10 27/04/87 B.E E&TC AND P.G DIPLOMA IN EMBEDDED SYSTEMS SATARA SOFTWARE PUNE/7.5 LAKH PA
MB40205 05/08/14 5.06 04/05/86 BE INFORMATION TECHNOLOGY PUNE SOFTWARE PROFESSIONAL PUNE/1150000 PA
MB40204 05/08/14 5.08 14/07/82 MBBS,MD, DM(CARDIOLOGY) AURANGABAD STUDENT AURANGABAD/44,000 PM
MB40203 05/08/14 5.07 23/12/84 B.E MS(USA) MUMBAI SR.ENGINEER USA/...... PM
MB40202 05/08/14 5.08 19/01/84 B.E. MECH, M.E. (APPEARING) SANGLI SERVICE PUNE/45000 PM
MB40201 04/08/14 5.09 22/10/84 M.PHARM LATUR SR.REGULATORY OFFICER IN SIDMAK LABORATORIES(INDIA) PVT.LTD. MUMBAI/45000/-PM
MB40200 04/08/14 5.06 14/08/83 B.E. COMPUTER PUNE TEAM LEAD PUNE/14.5 LAC PA
MB40199 04/08/14 5.09 26/04/86 DIPLOMA IN COMPUTER HARDWARE NETWORKING FROM JETKING / Aviation, hospitality and travel FROM FRANKFINN AND PERSUING GRADUATION IN BA (TY BA) PUNE IN MULTINATIONAL - WNS (WORLD NETWORK SERVICES) AS QA PUNE/270000/- PA
MB40198 04/08/14 5.05 18/11/87 ICWA, MCOM, CS INTER NASHIK Associate Manager F&A in Dabur International Ltd , Dubai/19 LAC PA
MB40197 03/08/14 5.05 27/09/85 BE(COMP) MUMBAI S/W Engineer at Prime focus Technologies Mumbai. /
MB40196 03/08/14 5.07 24/11/85 BE(IT) PUNE SERVICE IN EMTEC INC.PUNE/5 LAC PA
MB40195 03/08/14 5.08 03/01/87 BE(COMP), MBA(FIN) PUNE FINANCE ANALYST NAVI MUMBAI/7 LAC PA
MB40194 03/08/14 5.06 01/01/86 MCA, BSC(MATHS) KOLHAPUR SR.S/W DEVELOPER PUNE/53700/-PM
MB40193 03/08/14 5.08 20/02/86 MCOM NASHIK SERVICE MNC PUNE/30000/-PM
MB40190 03/08/14 5.06 24/06/86 BE-IT + C-DAC PUNE SERVICE PUNE/6 LAC PA
MB40189 03/08/14 5.09 17/09/86 BE(E&TC) PUNE S/W ENGINEER PUNE/7 LAC PA
MB40188 03/08/14 5.11 19/11/84 BE(E&TC) THANE SERVICE MUMBAI/11 LAC PA
MB40187 03/08/14 5.09 09/08/87 MCS PUNE SERVICE PUNE/35000/-PM
MB40186 03/08/14 5.05 05/11/86 12TH SCI., DIP.MECH, BE(MECH)LAST YEAR PUNE APPLICATION ENGINEER PUNE/20000/-PM
MB40185 03/08/14 5.06 20/06/88 MCS PUNE SOFTWARE ENGINEER PUNE/18000 PM
MB40183 03/08/14 5.04 11/11/82 MCOM, MBA FINANCE (PUNE UNIVERSITY) PUNE banking professional (service) pune /500000 PA
MB40182 03/08/14 5.06 10/11/87 BE MECHANICAL PUNE SERVICE MNC PUNE/450000 PA
MB40181 03/08/14 5.07 05/11/88 BE(E&TC) PUNE TIETO S/W PUNE/7 LAC PA
MB40180 03/08/14 5.08 23/01/82 BSC(CHEM), PGDBM SATARA SERVICE PUNE/4.6 LAC PA
MB40179 03/08/14 5.07 06/11/88 BE(MECH) BARODA Siemens Ltd, Vadodara/6.5 lakhs pa
MB40178 03/08/14 5.11 19/05/85 MD(AYU)KAYA CHIKITSA, BAMS PUNE CONSULTING+LECTURER PUNE/60000/-PM
MB40177 02/08/14 5.08 29/01/87 BBA, MBA(MKTG) JALGAON SALES OFFICER PUNE/22000/-PM
MB40176 02/08/14 5.08 24/04/88 BSC, LLB MUMBAI LAWYER/2 LAC PM
MB40175 02/08/14 5.07 05/01/83 DME PUNE DY.ENGG. PUNE/4.8 LAC PA
MB40174 02/08/14 5.06 14/10/86 BE(E&TC) PUNE SERVICE IN MNC NOW AT USA/--
MB40172 02/08/14 5.05 06/04/86 B.C.A. & Dip. (Comp Engg) PUNE SERVICE - EXPERT TECHNICAL CONSULTANT (TL) PUNE/11 LAC PA
MB40171 02/08/14 5.06 27/09/84 M.PHARM LATUR QA OFFICER PALGHAR/16000/-PM
MB40170 02/08/14 5.09 23/11/87 B.E.(CHEMICAL) BARODA SERVICE BARODA/--
MB40169 02/08/14 6.00 21/05/87 D.E.E. + B.E.E. NASHIK GOVT.SERVICE IN ONGC MUMBAI /40000 PM
MB40168 02/08/14 5.08 21/11/82 B.E. MECHANICAL PUNE LEAD SOFTWARE PUNE/14 LAC PA
MB40167 02/08/14 5.08 28/12/89 ELECTRICAL DIPLOMA MUMBAI OWN READYMADE SHOP MUMBAI/50000 PM
MB40166 02/08/14 5.10 30/06/86 MS ( COMPUTER NETWORKING ) LONDON , BE (COMPUTER) BIDAR ENTREPRENEUR OWN SOFTWARE COMPANY /ON REQUEST PM
MB40165 02/08/14 5.05 10/07/84 MCA,BSC MUMBAI SOFTWARE ENGINEER MUMBAI/6.2 LAC PA
MB40164 02/08/14 5.08 26/01/86 BCOM, IATA(TRAVEL TOURISM DIP) MUMBAI OWN TRAVEL COMPANY/--
MB40163 02/08/14 5.10 07/06/81 MCM PUNE TEAM LEAD(IT Software) PUNE /11.54 LAC PA
MB40162 02/08/14 5.05 31/07/85 BDS BELGAUM OWN DENTAL CLINIC(PLANNING FOR STARTING SECOND PRACTICE IN ICCHALKARANJI AND ALSO WANTS TO SETTLE IN ICCHALKARANJI AFTER MARRIAGE)/50000/-PM
MB40160 02/08/14 5.08 04/09/85 MBBS, DOING MD(PHARMACOLOGY) SANGLI AFTER EDUCATION PLANNING TO SETTLE IN PUNE/MUMBAI/40000/-PM
MB40159 02/08/14 5.06 10/04/87 MASTER OF PHARMACY LATUR ASSIST. PROFESSOR /2.6 LAC PA
MB40158 02/08/14 5.11 13/09/85 B.E. CIVIL THANE SERVICE THANE/70000 PM
MB40157 02/08/14 5.10 10/09/84 B.ARCH, M.ARCH (MASTER IN ARCHITECT) ENGLAND (UK) AURANGABAD SERVICE CONSULTING ARCHITECT MUMBAI/11.00 LACS PA
MB40156 02/08/14 5.08 23/01/84 BE(PROD), MS(ELECTRONICS)USA, MS(COMP.SCI)USA KOLHAPUR SERVICE IN USA/--
MB40155 01/08/14 5.08 01/01/83 BSC(MICRO), PG IN CLINICAL RESEARCH NASHIK STATISTICAL PROGARMMER IN PUNE /53000/-PM
MB40154 01/08/14 5.10 08/11/84 M.SC. PH.D. (ENVIRONMENTAL SCIENCE) SOLAPUR Environmental Consultant, Mantralaya, Mumbai./6 LAKH PA
MB40153 01/08/14 5.11 01/10/85 PGDSM, MBA PUNE TEAM LEADER IN MNC PUNE/380000 PA
MB40152 01/08/14 5.11 11/12/87 MASTERS IN INFORMATION SYSTEMS MUMBAI EXECUTIVE, KPMG MUMBAI/5 PA
MB40150 01/08/14 6.00 21/02/87 MBBS DNB MEDICINE 3RD YR PUNE DNB RESIDENT PUNE/400000 PA
MB40149 01/08/14 5.08 23/11/81 SAP CERTIFIED, B.COM. PUNE SERVICE PUNE/25000 PM
MB40148 01/08/14 5.05 07/11/86 BSC(CHEM), MBA(MKTG) PUNE SERVICE IN PUNE/
MB40147 31/07/14 5.10 18/10/87 PGD-IT PUNE SERVICE PUNE/3.82 LPA
MB40146 31/07/14 5.07 02/07/87 B.TECH(METALLURGY), ME NASHIK ASST.MANAGER MUMBAI/7 LAC PA
MB40145 31/07/14 5.04 19/02/87 BE MECHANICAL PUNE SERVICE IN PUNE/46000/- PM
MB40144 31/07/14 5.10 18/06/83 BE(E&TC), M.TECH A.NAGAR Barclays Pune/--
MB40143 31/07/14 6.00 14/04/79 DME, MBA KOLHAPUR OWN ENGG.INDUSTRY /3 LAC PM
MB40142 30/07/14 5.08 19/01/86 BCOM A.NAGAR CONSTRUCTION BUSINESS A.NAGAR/--
MB40141 30/07/14 5.10 15/09/83 BE (MECH) & MBA (MRKT) ,CONVENT EDU SATARA BUSINESS PUNE/7 TO 9 LACKS PA
MB40140 30/07/14 5.11 18/06/84 HSC MUMBAI BUSINESS MUMBAI/11 LAC PA
MB40139 30/07/14 5.05 21/07/88 BA PUNE OWN BUSINESS-BOYS HOSTEL+SHOPS ON RENT+AGRI/--
MB40138 30/07/14 5.11 25/04/83 MS(S/W ENGG) MUMBAI S/W ARCHITECT/ CONSULTANT MUMBAI/10.5 LAC PA
MB40137 30/07/14 5.09 04/07/88 BE(MECH) PUNE DY.MANAGER PUNE/58500/- PM
MB40136 29/07/14 5.09 30/05/86 HOTEL MGMT(MANGALORE), MBA SANGLI ASST.MANAGER IN PVT COMPANY GOA/--
MB40135 29/07/14 5.04 24/01/87 BE(COMP) PUNE SERVICE IN IBM PUNE/9.5 LAC PA
MB40134 29/07/14 6.00 25/10/86 B.E. (MECH) PUNE SELF OWNED BUSINESS, FACTORY PUNE/50000 PM
MB40133 29/07/14 5.08 06/09/85 BSC(IT), MCA PUNE S/W PROFESSIONAL IN SINGAPORE/40 LAC PA
MB40130 29/07/14 5.11 09/08/83 MBA AND BE ENTC PUNE SR MANAGER CANADA/$6000 PM
MB40129 28/07/14 5.10 22/10/85 B.C.C.A,, MBA NAGPUR BUSINESS NAGPUR/60,000 +PM
MB40128 28/07/14 5.10 21/05/76 BE, MTech (IIT Powai), PHD (USA) PUNE Senior Staff Engineer, Intel, USA/175K PA
MB40127 28/07/14 5.08 07/10/83 B.E COMPUTER PUNE S/W ENGINEER / PM
MB40126 28/07/14 5.06 29/08/85 MBBS(GMC Kolhapur), DCH(Seth GSMC-KEM/Wadia hospital,Mumbai), Secondary DNB-Paediatric persuading MUMBAI Doctor (Paediatrician)/8.5 LAC PA
MB40125 27/07/14 5.11 10/09/85 BE(IT) PUNE SR. S/W DEVELOPER IN PUNE/
MB40124 27/07/14 5.06 06/12/84 BE(PROD), PGDTD & CC SATARA DESIGN ENGINEER/4 LAC PA
MB40123 27/07/14 5.11 06/11/86 B.TECH. (PROD) COEP PUNE SENIOR ENGINEER PUNE/7.8.LAC PA
MB40122 27/07/14 5.10 11/11/84 BE(COMP), MBA(FIN) PUNE SR.S/W ENGINEER IN MNC/--
MB40120 27/07/14 5.07 05/05/87 BE(E & Tc), ME(E & Tc) PUNE Technical Lead /15.20 LAC PA
MB40119 26/07/14 5.05 19/06/87 BDS, MDS ORTHODONTICS MUMBAI OWN PRACTICE THANE/ --
MB40118 26/07/14 5.06 08/03/84 BE(COMP) PUNE S/W DEVELOPERS BANGALORE/8.5 LAC PA
MB40117 26/07/14 5.09 10/11/85 BE(E&TC), MBA(IT) SANGLI CLASS-II OFFICER PUNE/--
MB40116 26/07/14 5.07 02/07/83 BE(E&TC), MBA MUMBAI SERVICE IN MNC MUMBAI /1 LAC PM
MB40115 26/07/14 5.04 14/05/84 PURSUING PHD, M.TECH (IIT), PGDM MUMBAI ASSISTANT PROFESSOR, BUSINESS THANE/9 LAC PA
MB40114 26/07/14 5.10 16/07/86 B.SC. NAVI MUMBAI SERVICE ASST.MANAGER STATE BANK OF INDIA/4.8 LAC PA
MB40113 26/07/14 5.08 13/06/84 MBA PUNE SERVICE PUNE/--
MB40112 26/07/14 5.07 06/04/86 MCA SATARA SOFTWARE ENGINEER[DOT NET] PUNE/25000 PM
MB40111 26/07/14 5.09 03/08/83 BE(E&TC) SATARA ASST.MANAGER PUNE/60000/-PM
MB40110 26/07/14 5.04 24/01/81 BE(E&TC) PUNE S/W ENGINEER IN TCS,MNC, PUNE/7 LAC PA
MB40109 26/07/14 5.10 17/01/83 BE(CIVIL), PG IN PROJECT MGMT SOLAPUR Deputy Manager. Reliance MUMBAI/5.8 LAC PA+
MB40108 26/07/14 5.05 22/09/86 M.B.B.S., M. SC, DOING M. D. THANE DOING M. D. AND WORKING IN UK/40000 GBP PA
MB40107 26/07/14 6.00 08/11/84 M.E.(MECH.,APPEAR) A.NAGAR DESIGN ENGINEER (TEAM LEADER) /4 LAC PA
MB40106 25/07/14 5.07 09/06/84 MCOM PUNE HDFC SALES PUNE/--
MB40105 25/07/14 5.09 05/11/85 BAMS SOLAPUR DOCTOR /6 LAKH PA
MB40104 25/07/14 5.11 05/01/88 MBBS, 2ND YEAR M.S. GEN.SURGERY SANGLI DOCTOR/ PM
MB40102 25/07/14 5.06 03/11/86 BVSc, PhD A.NAGAR Teaching Assistant at Ohio University (USA) /--
MB40101 25/07/14 5.08 23/12/82 BE(COMPUTER SCIENCE & ENGINEERING) SANGLI SERVICE/AS PER REQUEST
MB40100 25/07/14 5.10 11/06/85 BE(MECH) PUNE SERVICE PUNE/5 LAC PA
MB40099 24/07/14 5.07 25/07/89 MBBS DMRD (1ST YEAR) A.NAGAR STUDENT/ PM
MB40098 24/07/14 5.07 02/05/86 MCA MUMBAI SR. DEVELOPER IN IBM, PUNE/8.80 LAC PA
MB40097 24/07/14 5.10 15/10/85 M.E.(I.T.) LATUR PRADHYAPAK PUNE/32000 PM
MB40096 24/07/14 5.10 16/12/86 BE(E&TC) PUNE SR.S/W ENGINEER PUNE/9.25 LAC PA
MB40095 24/07/14 5.11 02/10/88 DME, B.TECH(MECH) APPEARING PUNE BUSINESS+INDUSTRIES/--
MB40094 24/07/14 6.00 09/12/87 BE(COMP.SCI)(VIT COLLEGE), MS(COMP.SCI)USA PUNE SERVICE USA/5 LAC PM
MB40093 24/07/14 5.07 27/06/87 BSC(AGRI), MBA(MKTG) PUNE CLASS-I OFFICER IN BANK VARANASI/50000/-
MB40092 23/07/14 5.04 17/04/86 MBA FINANCE WASHIM EQUITY TRADER (US MARKET) PUNE/12 LAC PA
MB40091 23/07/14 6.01 22/02/84 BA NAVI MUMBAI CONSTRUCTION BUSINESS MUMBAI/--
MB40089 23/07/14 5.03 06/06/73 C-DAC, DIP. SOFT TESTING, PGDCM, M. COM PUNE SERVICE PUNE/54,000 PM
MB40088 23/07/14 5.10 07/09/85 Dip (E&TC), BE( E&TC) and PG(N&TC). PUNE SOFTWARE ENGINEER PUNE/ PM
MB40087 22/07/14 5.08 18/12/84 MBA, BSC MUMBAI MANAGER/50000/-PM
MB40086 22/07/14 5.06 22/03/84 MD(MEDICINE)AYU. PUNE HOSPITAL JOB+ OWN CLINIC PUNE/--
MB40085 22/07/14 5.06 14/05/84 BCOM NAVI MUMBAI TRANSPORT BUSINESS/1.25 LAC PM
MB40084 22/07/14 5.07 01/04/83 BDS, MDS(ORTHODONTICS) AURANGABAD Consultant Orthodontist and Own clinic in Aurangabad/--
 
    page 7 of 13
 
Home | Rules | Search | Enroll | Grooms | Brides | Divorcee | Response | Magazine | Success Stories | Contact Us